Location: *
(40.7765°S, 106.5327°E)
Time: 15:42:47
(UTC+00:00)

Cosmos 2278 - Pass Details

Date: 26 May 2022
Orbit: 838 x 854 km, 71.1° (Epoch: 05 July)

Event Time Altitude Azimuth Distance (km) Brightness Sun altitude
Rises 10:50:13 0° 196° (SSW) 3,435 6.9 -13.5°
Reaches altitude 10° 10:53:00 10° 185° (S) 2,491 6.0 -14.0°
Maximum altitude 10:58:00 30° 124° (ESE) 1,475 4.4 -14.9°
Enters shadow 11:00:58 19° 78° (ENE) 1,890 5.0 -15.5°
